Zurück zum Katalog

USA 471

AktivMilitärVLEO
NORAD 62540·PAYLOAD·🇺🇸 United States

Gestartet Jan 10, 2025 von Vandenberg Space Force Base

Loading…

Nächste Überflüge (nächste 24 Stunden)

TLE

VeraltetSource: Mike McCants

Epoche: Aug 7, 2026, 23:58 UTC

1 62540U 25005J   26219.99901705 0.00000000  00000-0  00000-0 0    02
2 62540  70.0146 286.6783 0002000 242.2531 117.7469 14.96713163    04

Verfolge USA 471 in Echtzeit mit AllMySat

Download on the App Store